Time,TemperatureF,DewpointF,PressureIn,WindDirection,WindDirectionDegrees,WindSpeedMPH,WindSpeedGustMPH,Humidity,HourlyPrecipIn,Conditions,Clouds,dailyrainin,SoftwareType,DateUTC
2015-08-02 00:03:00,75.0,74.0,29.86,SE,131,0.0,1.0,97,-99.99,,,-99.99,,2015-08-02 05:03:00,
2015-08-02 00:13:00,75.0,74.0,29.86,SE,131,0.0,0.0,97,-99.99,,,-99.99,,2015-08-02 05:13:00,
2015-08-02 00:24:00,75.0,74.0,29.86,SE,131,0.0,0.0,97,-99.99,,,-99.99,,2015-08-02 05:24:00,
2015-08-02 00:33:00,74.0,73.0,29.86,SE,131,0.0,0.0,97,-99.99,,,-99.99,,2015-08-02 05:33:00,
2015-08-02 00:44:00,74.0,73.0,29.85,SE,132,0.0,1.0,97,-99.99,,,-99.99,,2015-08-02 05:44:00,
2015-08-02 00:53:00,74.0,73.0,29.85,SE,132,0.0,1.0,97,-99.99,,,-99.99,,2015-08-02 05:53:00,
2015-08-02 01:04:00,74.0,73.0,29.85,SE,132,0.0,1.0,97,-99.99,,,-99.99,,2015-08-02 06:04:00,
2015-08-02 01:12:00,74.0,73.0,29.85,SE,132,0.0,0.0,97,-99.99,,,-99.99,,2015-08-02 06:12:00,
2015-08-02 01:24:00,74.0,73.0,29.85,SE,132,0.0,0.0,97,-99.99,,,-99.99,,2015-08-02 06:24:00,
2015-08-02 01:33:00,73.0,72.0,29.85,SE,132,0.0,1.0,97,-99.99,,,-99.99,,2015-08-02 06:33:00,
2015-08-02 01:44:00,73.0,72.0,29.84,SE,132,0.0,1.0,97,-99.99,,,-99.99,,2015-08-02 06:44:00,
2015-08-02 01:54:00,73.0,72.0,29.84,SE,132,0.0,1.0,97,-99.99,,,-99.99,,2015-08-02 06:54:00,
2015-08-02 02:03:00,73.0,72.0,29.84,SE,132,0.0,0.0,97,-99.99,,,-99.99,,2015-08-02 07:03:00,
2015-08-02 02:12:00,73.0,72.0,29.84,SE,132,0.0,1.0,97,-99.99,,,-99.99,,2015-08-02 07:12:00,
2015-08-02 02:23:00,73.0,72.0,29.84,SE,132,0.0,1.0,97,-99.99,,,-99.99,,2015-08-02 07:23:00,
2015-08-02 02:34:00,73.0,72.0,29.83,SE,132,0.0,0.0,97,-99.99,,,-99.99,,2015-08-02 07:34:00,
2015-08-02 02:44:00,72.0,71.0,29.83,SE,132,0.0,0.0,97,-99.99,,,-99.99,,2015-08-02 07:44:00,
2015-08-02 02:53:00,72.0,71.0,29.83,SE,132,0.0,0.0,97,-99.99,,,-99.99,,2015-08-02 07:53:00,
2015-08-02 03:03:00,72.0,71.0,29.83,SE,132,0.0,0.0,97,-99.99,,,-99.99,,2015-08-02 08:03:00,
2015-08-02 03:13:00,72.0,71.0,29.83,SE,132,0.0,0.0,97,-99.99,,,-99.99,,2015-08-02 08:13:00,
2015-08-02 03:23:00,72.0,71.0,29.83,SE,132,0.0,-999.0,97,-99.99,,,-99.99,,2015-08-02 08:23:00,
2015-08-02 03:33:00,72.0,71.0,29.83,NW,309,1.0,3.0,97,-99.99,,,-99.99,,2015-08-02 08:33:00,
2015-08-02 03:43:00,73.0,71.0,29.82,WNW,297,0.0,2.0,95,-99.99,,,-99.99,,2015-08-02 08:43:00,
2015-08-02 03:53:00,73.0,71.0,29.82,WNW,297,0.0,2.0,95,-99.99,,,-99.99,,2015-08-02 08:53:00,
2015-08-02 04:03:00,73.0,71.0,29.82,NW,322,0.0,2.0,95,-99.99,,,-99.99,,2015-08-02 09:03:00,
2015-08-02 04:12:00,73.0,71.0,29.82,NW,304,0.0,1.0,94,-99.99,,,-99.99,,2015-08-02 09:12:00,
2015-08-02 04:24:00,73.0,71.0,29.82,NW,304,0.0,1.0,94,-99.99,,,-99.99,,2015-08-02 09:24:00,
2015-08-02 04:33:00,73.0,71.0,29.82,NW,304,0.0,0.0,95,-99.99,,,-99.99,,2015-08-02 09:33:00,
2015-08-02 04:43:00,72.0,71.0,29.83,NW,304,0.0,0.0,96,-99.99,,,-99.99,,2015-08-02 09:43:00,
2015-08-02 04:53:00,72.0,71.0,29.83,NW,304,0.0,0.0,96,-99.99,,,-99.99,,2015-08-02 09:53:00,
2015-08-02 05:03:00,72.0,71.0,29.83,NW,304,0.0,0.0,96,-99.99,,,-99.99,,2015-08-02 10:03:00,
2015-08-02 05:12:00,72.0,71.0,29.83,NW,304,0.0,0.0,97,-99.99,,,-99.99,,2015-08-02 10:12:00,
2015-08-02 05:26:00,72.0,71.0,29.84,NW,304,0.0,0.0,97,-99.99,,,-99.99,,2015-08-02 10:26:00,
2015-08-02 05:33:00,72.0,71.0,29.84,NW,304,0.0,0.0,97,-99.99,,,-99.99,,2015-08-02 10:33:00,
2015-08-02 05:43:00,72.0,71.0,29.84,NW,304,0.0,1.0,97,-99.99,,,-99.99,,2015-08-02 10:43:00,
2015-08-02 05:53:00,72.0,71.0,29.84,NW,304,0.0,1.0,97,-99.99,,,-99.99,,2015-08-02 10:53:00,
2015-08-02 06:03:00,73.0,72.0,29.84,NNW,341,0.0,2.0,97,-99.99,,,-99.99,,2015-08-02 11:03:00,
2015-08-02 06:13:00,73.0,72.0,29.85,NW,314,0.0,1.0,96,-99.99,,,-99.99,,2015-08-02 11:13:00,
2015-08-02 06:23:00,73.0,72.0,29.85,NW,314,0.0,1.0,96,-99.99,,,-99.99,,2015-08-02 11:23:00,
2015-08-02 06:33:00,74.0,72.0,29.85,NNW,345,0.0,5.0,95,-99.99,,,-99.99,,2015-08-02 11:33:00,
2015-08-02 06:43:00,74.0,72.0,29.85,NW,310,0.0,3.0,95,-99.99,,,-99.99,,2015-08-02 11:43:00,
2015-08-02 06:53:00,74.0,72.0,29.85,NW,310,0.0,3.0,95,-99.99,,,-99.99,,2015-08-02 11:53:00,
2015-08-02 07:03:00,74.0,72.0,29.85,NW,304,0.0,5.0,94,-99.99,,,-99.99,,2015-08-02 12:03:00,
2015-08-02 07:13:00,75.0,73.0,29.85,NW,326,0.0,1.0,94,-99.99,,,-99.99,,2015-08-02 12:13:00,
2015-08-02 07:24:00,75.0,73.0,29.85,NW,326,0.0,1.0,94,-99.99,,,-99.99,,2015-08-02 12:24:00,
2015-08-02 07:34:00,75.0,73.0,29.86,NW,326,0.0,2.0,94,-99.99,,,-99.99,,2015-08-02 12:34:00,
2015-08-02 07:44:00,76.0,74.0,29.86,NNW,343,0.0,5.0,93,-99.99,,,-99.99,,2015-08-02 12:44:00,
2015-08-02 07:53:00,76.0,74.0,29.86,NNW,343,0.0,5.0,93,-99.99,,,-99.99,,2015-08-02 12:53:00,
2015-08-02 08:03:00,77.0,74.0,29.86,NW,311,1.0,6.0,91,-99.99,,,-99.99,,2015-08-02 13:03:00,
2015-08-02 08:13:00,78.0,74.0,29.87,NW,325,3.0,6.0,89,-99.99,,,-99.99,,2015-08-02 13:13:00,
2015-08-02 08:23:00,78.0,74.0,29.87,NW,325,3.0,6.0,89,-99.99,,,-99.99,,2015-08-02 13:23:00,
2015-08-02 08:33:00,79.0,75.0,29.87,NNW,338,2.0,5.0,87,-99.99,,,-99.99,,2015-08-02 13:33:00,
2015-08-02 08:44:00,81.0,75.0,29.87,NNE,14,3.0,7.0,82,-99.99,,,-99.99,,2015-08-02 13:44:00,
2015-08-02 08:53:00,81.0,75.0,29.87,NNE,14,3.0,7.0,82,-99.99,,,-99.99,,2015-08-02 13:53:00,
2015-08-02 09:03:00,81.0,75.0,29.88,NNW,333,3.0,6.0,81,-99.99,,,-99.99,,2015-08-02 14:03:00,